NOAA 16 DEB, 42349

Orbit data source: Space-Track

NOAA 16 DEB, 42349 is space debris in SSO originally from a launch on Thu, 21 Sep 2000 UTC launched from the Air Force Western Test Range (AFWTR). Debris objects in space refer to the collection of defunct objects orbiting the Earth. Examples of debris include non-operational satellites, rocket bodies, and fragments generated from explosions, collisions, or faulty payload assembly.

Loading next visibility...
Identifier
42349, 2000-055QR
Orbit
SSO
Country
Flag of USUS
Related business
Manufacturer
Unknown
Mission
Spacecraft
Bus & Motor
Unknown
Mass
Unknown
Launch date (UTC)
Icon of a cake. It is the launch day of the satellite!2000-09-21 (26 years ago)
Launch vehicle
Unknown
Launch site
Air Force Western Test Range (AFWTR)
Object type
Payload
Rocket body
Debris
Shape & HBR
Unknown shape, 0.1 m
Radar Cross Section
Medium (>0.1 m² and <1 m²)

Expand to show TLE details & history
Last TLE update: 1 day ago

TLE from 1 day ago
0 NOAA 16 DEB
1 42349U 00055QR  26263.00937694  .00001681  00000-0  72609-3 0  9992
2 42349  98.6604 322.0445 0010152 177.8609 182.2616 14.25720808540725
Epoch: 2026-09-20T00:13Z
TLE epoch observation values (Epoch: 2026-09-20T00:13:30.167Z)
Latitude
-0.00002°
Longitude
-40.2409°
Altitude
816.283 km
Speed
7.441 km/s
True Right ascension
21h 28m 10s
True Declination
0° 00' 00"
Sunlit
Object was in full shadow at epoch
Visualization orbit readout
Latitude
Unknown
Longitude
Unknown
Altitude
Unknown
Speed
Unknown
Apparent Right ascension
Unknown
Apparent Declination
Unknown
Sunlit
N/A
Visualization observer readout
Local Sidereal Time
17:09:57
Azimuth
Unknown
Elevation
Unknown
Doppler factor
Unknown
Orbital elements
Apogee altitude
810.509 km
Perigee altitude
795.928 km
Semi-major axis
7,181.356 km
Eccentricity
0.00102
Inclination
98.6604°
RAAN
322.0445°
Arg. of periapsis
177.8609°
True anomaly
182.25702°
Mean anomaly
182.2616°
Eccentric anomaly
182.25931°
Mean motion
3.56643 °/min
Orbital period
100.94 mins
BSTAR
0.00072609
Loading maneuver chart data...
Computing Atmospheric mass density...
Loading historical data...
Loading historical data...
Loading historical data...
Loading historical data...
Loading historical data...
Loading historical data...
Loading historical data...

Documentation

Showing up to 5 results
|